Greenville, AL

8:44 PM CDT on March 28, 2017 (GMT -0500)
Greenville Municipal

Weather History for KPRN - March, 2014

Change the Weather History Date:

Thursday, March 27, 2014

  Actual Average Record
Temperature  
Mean Temperature 56 °F -  
Max Temperature 73 °F 70 °F 89 °F (1929)
Min Temperature 41 °F 45 °F 21 °F (1955)
Degree Days  
Heating Degree Days 8    
Growing Degree Days 6 (Base 50)    
Moisture  
Dew Point 42 °F    
Average Humidity 56    
Maximum Humidity 76    
Minimum Humidity 37    
Precipitation  
Precipitation 0.00 in - - ()
Sea Level Pressure  
Sea Level Pressure 30.16 in    
Wind  
Wind Speed 6 mph (SSE)    
Max Wind Speed 15 mph    
Max Gust Speed 23 mph    
Visibility 10 miles    
Events      
Averages and records for this station are not official NWS values.
T = Trace of Precipitation, MM = Missing Value Source: NWS Daily Summary

Daily Weather History Graph

Daily Weather History Graph

Search for Another Location

Airport or City:

Trip Planner

Search our weather history database for the weather conditions in past years. The results will help you decide how hot, cold, wet, or windy it might be!

Date:

Astronomy

Mar. 27, 2014 Rise Set
Actual Time 6:41 AM CDT 7:02 PM CDT
Civil Twilight 6:16 AM CDT 7:27 PM CDT
Nautical Twilight 5:48 AM CDT 7:55 PM CDT
Astronomical Twilight 5:19 AM CDT 8:24 PM CDT
Moon 4:20 AM CDT (3/27) 4:00 PM CDT (3/27)
Length of Visible Light 13h 10m
Length of Day
12h 21m
Waning Crescent, 13% of the Moon is Illuminated
Mar 27
Waning Crescent
Mar 30
New
Apr 7
First Quarter
Apr 15
Full
Apr 22
Last Quarter

Hourly Weather History & Observations

Time (CDT) Temp. Windchill Dew Point Humidity Pressure Visibility Wind Dir Wind Speed Gust Speed Precip Events Conditions
12:56 AM 41.0 °F - 34.0 °F 76% 30.23 in 10.0 mi Calm Calm - N/A   Clear
1:56 AM 42.1 °F - 33.1 °F 70% 30.24 in 10.0 mi Calm Calm - N/A   Clear
2:56 AM 45.0 °F - 28.0 °F 52% 30.22 in 10.0 mi Calm Calm - N/A   Clear
3:56 AM 45.0 °F - 30.0 °F 56% 30.22 in 10.0 mi Calm Calm - N/A   Clear
4:56 AM 44.1 °F 41.5 °F 30.9 °F 60% 30.21 in 10.0 mi ESE 4.6 mph - N/A   Clear
5:56 AM 45.0 °F 41.8 °F 30.0 °F 56% 30.21 in 10.0 mi ESE 5.8 mph - N/A   Mostly Cloudy
6:56 AM 46.0 °F 42.5 °F 28.0 °F 50% 30.21 in 8.0 mi SE 6.9 mph - N/A   Mostly Cloudy
7:56 AM 48.0 °F - 28.9 °F 48% 30.23 in 7.0 mi SE 5.8 mph - N/A   Clear
8:56 AM 51.1 °F - 27.0 °F 39% 30.24 in 9.0 mi SE 10.4 mph - N/A   Overcast
9:56 AM 57.0 °F - 30.9 °F 37% 30.25 in 10.0 mi SE 6.9 mph 19.6 mph N/A   Overcast
10:56 AM 61.0 °F - 37.0 °F 41% 30.24 in 10.0 mi SSE 8.1 mph 20.7 mph N/A   Partly Cloudy
11:56 AM 64.9 °F - 42.1 °F 43% 30.21 in 10.0 mi SSE 8.1 mph 19.6 mph N/A   Clear
12:56 PM 68.0 °F - 43.0 °F 40% 30.19 in 10.0 mi SSE 8.1 mph - N/A   Clear
1:56 PM 70.0 °F - 43.0 °F 38% 30.16 in 10.0 mi SSE 15.0 mph 23.0 mph N/A   Clear
2:56 PM 72.0 °F - 46.0 °F 40% 30.13 in 10.0 mi South 13.8 mph 21.9 mph N/A   Clear
3:56 PM 72.0 °F - 46.0 °F 40% 30.10 in 10.0 mi SSW 12.7 mph 18.4 mph N/A   Partly Cloudy
4:56 PM 71.1 °F - 46.9 °F 42% 30.09 in 10.0 mi South 12.7 mph 21.9 mph N/A   Clear
5:56 PM 69.1 °F - 48.9 °F 49% 30.08 in 10.0 mi South 12.7 mph 23.0 mph N/A   Partly Cloudy
6:56 PM 64.9 °F - 51.1 °F 61% 30.10 in 10.0 mi SSW 9.2 mph - N/A   Scattered Clouds
7:56 PM 64.0 °F - 53.1 °F 67% 30.12 in 10.0 mi South 6.9 mph - N/A   Mostly Cloudy
8:51 PM 62.6 °F - 53.6 °F 72% 30.12 in 10.0 mi South 6.9 mph - N/A   Overcast
8:56 PM 63.0 °F - 54.0 °F 72% 30.11 in 10.0 mi South 6.9 mph - N/A   Overcast
9:25 PM 62.6 °F - 53.6 °F 72% 30.11 in 10.0 mi SSE 9.2 mph - N/A   Overcast
9:56 PM 63.0 °F - 53.1 °F 70% 30.08 in 10.0 mi SSE 13.8 mph 23.0 mph N/A   Mostly Cloudy
10:56 PM 62.1 °F - 53.1 °F 72% 30.08 in 10.0 mi SSE 6.9 mph 23.0 mph N/A   Overcast
11:14 PM 62.6 °F - 53.6 °F 72% 30.09 in 10.0 mi SSE 12.7 mph 19.6 mph N/A   Overcast
11:56 PM 62.1 °F - 54.0 °F 75% 30.08 in 10.0 mi SSE 12.7 mph 17.3 mph N/A   Overcast